Location: ??????
(38.0131°N, 23.7723°E)
Time: 04:57:31
(UTC+00:00)

Cosmos 389 Rocket - Pass Details

Date: 17 October 2021
Orbit: 439 x 468 km, 81.1° (Epoch: 28 November)

Event Time Altitude Azimuth Distance (km) Brightness Sun altitude
Rises 16:44:55 0° 201° (SSW) 2,411 6.4 -12.7°
Reaches altitude 10° 16:47:01 10° 208° (SSW) 1,546 5.5 -13.1°
Maximum altitude 16:50:15 44° 282° (WNW) 622 3.6 -13.7°
Drops below altitude 10° 16:53:31 10° 355° (N) 1,561 5.2 -14.3°
Sets 16:55:39 0° 2° (N) 2,439 6.1 -14.8°
